Location: Colorado Springs
(38.8340°N, 104.8210°W)
Time: 08:48:07
(UTC-06:00)

Envisat - Pass Details

Date: 16 October 2017
Orbit: 764 x 766 km, 98.2° (Epoch: 19 October)

Event Time Altitude Azimuth Distance (km) Brightness Sun altitude
Exits shadow 20:26:29 34° 18° (NNE) 1,250 4.0 -25.6°
Drops below altitude 10° 20:29:32 10° 358° (N) 2,308 5.6 -26.1°
Sets 20:31:54 0° 353° (N) 3,238 6.4 -26.6°
